tititudorancea.com
Station Historical Data
Daily Summary for February 27, 2019 Units:  Metric    English   Both
« Previous Day
Next Day »
Daily Weekly Monthly Yearly Custom
  High: Low: Average:
Temperature: -17.8 °C 10.5 °C 22.1 °C
Dew Point: -17.8 °C 6.4 °C 9.2 °C
Humidity: Humidity % 18 % 53 %
Wind Speed: 0 km/h 0 km/h 10.9 km/h
Wind Gust: 0 km/h - -
Wind:- - WSW
Pressure: 0 hPa 1014.1 hPa -
Precipitation: 0 mm    
Historical Graphs
 
 
Ararat weather Find more about Weather in Ararat, AU


 



 


Tabular Data for February 27, 2019
Time Temperature Dew Point Pressure Wind Wind Speed Wind Gust Humidity Rainfall Rate (Hourly)
-17.8 °C -17.8 °C 0 hPa Calm     Humidity % 0 mm
00:04 14.4 °C 11.6 °C 1019.9 hPa South 18.5 km/h 13.8 km/h 83 % 0 mm
00:09 14.3 °C 11.4 °C 1019.9 hPa South 18.5 km/h 14.8 km/h 83 % 0 mm
00:14 14.2 °C 11.6 °C 1019.9 hPa South 20.4 km/h 11.4 km/h 84 % 0 mm
00:19 14.1 °C 11.4 °C 1019.9 hPa South 22.2 km/h 14.2 km/h 84 % 0 mm
00:24 14.1 °C 11.4 °C 1019.9 hPa South 18.5 km/h 8.7 km/h 84 % 0 mm
00:29 13.9 °C 11.4 °C 1019.9 hPa South 17.7 km/h 12.2 km/h 85 % 0 mm
00:34 13.8 °C 11.3 °C 1019.9 hPa SSW 20.4 km/h 10.1 km/h 85 % 0 mm
00:39 13.8 °C 11.3 °C 1019.9 hPa SSW 16.1 km/h 13.4 km/h 85 % 0 mm
00:44 13.7 °C 11.2 °C 1019.9 hPa South 14.8 km/h 8.5 km/h 85 % 0 mm
00:49 13.6 °C 11.1 °C 1019.9 hPa South 14.8 km/h 11.7 km/h 85 % 0 mm
00:54 13.6 °C 11.1 °C 1019.9 hPa South 11.3 km/h 8.2 km/h 85 % 0 mm
00:59 13.5 °C 11 °C 1019.9 hPa South 16.7 km/h 10.6 km/h 85 % 0 mm
01:04 13.4 °C 10.9 °C 1019.9 hPa South 18.5 km/h 10.8 km/h 85 % 0 mm
01:09 13.4 °C 10.9 °C 1019.9 hPa South 18.5 km/h 10.5 km/h 85 % 0 mm
01:14 13.3 °C 10.9 °C 1019.9 hPa SSW 14.8 km/h 12.6 km/h 85 % 0 mm
01:19 13.2 °C 10.9 °C 1019.5 hPa SSW 20.9 km/h 13.8 km/h 86 % 0 mm
01:24 13.2 °C 10.9 °C 1019.5 hPa SSW 22.5 km/h 12.9 km/h 86 % 0 mm
01:29 13.2 °C 10.9 °C 1019.5 hPa South 18.5 km/h 15.1 km/h 86 % 0 mm
01:34 13.1 °C 10.8 °C 1019.5 hPa South 14.8 km/h 11.9 km/h 86 % 0 mm
01:39 13.1 °C 10.8 °C 1019.5 hPa South 14.8 km/h 8.5 km/h 86 % 0 mm
01:44 12.9 °C 10.7 °C 1019.5 hPa South 16.7 km/h 8 km/h 86 % 0 mm
01:49 12.9 °C 10.6 °C 1019.5 hPa South 17.7 km/h 11.4 km/h 86 % 0 mm
01:54 12.8 °C 10.5 °C 1019.5 hPa South 20.4 km/h 13 km/h 86 % 0 mm
01:59 12.7 °C 10.4 °C 1019.5 hPa South 16.7 km/h 12.2 km/h 86 % 0 mm
02:04 12.7 °C 10.6 °C 1019.5 hPa South 19.3 km/h 13.8 km/h 87 % 0 mm
02:09 12.6 °C 10.5 °C 1019.5 hPa South 18.5 km/h 12.9 km/h 87 % 0 mm
02:14 12.5 °C 10.4 °C 1019.5 hPa South 16.7 km/h 11.4 km/h 87 % 0 mm
02:19 12.5 °C 10.4 °C 1019.2 hPa South 16.7 km/h 12.7 km/h 87 % 0 mm
02:24 12.4 °C 10.3 °C 1019.2 hPa SSW 20.4 km/h 10.6 km/h 87 % 0 mm
02:29 12.3 °C 10.4 °C 1019.2 hPa SSW 17.7 km/h 10.6 km/h 88 % 0 mm
02:34 12.3 °C 10.3 °C 1019.2 hPa SSW 13 km/h 11.9 km/h 88 % 0 mm
02:39 12.2 °C 10.3 °C 1019.2 hPa SSW 14.8 km/h 10.8 km/h 88 % 0 mm
02:44 12.2 °C 10.2 °C 1019.2 hPa North 22.2 km/h 10.1 km/h 88 % 0 mm
02:49 12.2 °C 10.2 °C 1019.2 hPa SSW 13 km/h 12.1 km/h 88 % 0 mm
02:54 12.1 °C 10.2 °C 1019.2 hPa SSW 20.9 km/h 11.9 km/h 88 % 0 mm
02:59 12.1 °C 10.2 °C 1019.2 hPa North 14.8 km/h 11.6 km/h 88 % 0 mm
03:04 12.2 °C 10.2 °C 1019.2 hPa SSW 16.1 km/h 11.1 km/h 88 % 0 mm
03:09 12.1 °C 10.2 °C 1019.2 hPa SSW 19.3 km/h 14.6 km/h 88 % 0 mm
03:14 12.1 °C 10.1 °C 1018.8 hPa SSW 24.1 km/h 21.9 km/h 88 % 0 mm
03:19 12.1 °C 10.1 °C 1018.8 hPa North 20.4 km/h 15.8 km/h 88 % 0 mm
03:24 11.9 °C 10 °C 1018.8 hPa SSW 22.2 km/h 15 km/h 88 % 0 mm
03:29 11.9 °C 9.9 °C 1018.8 hPa SSW 16.7 km/h 14.8 km/h 88 % 0 mm
03:34 11.8 °C 9.9 °C 1018.8 hPa SSW 18.5 km/h 12.6 km/h 88 % 0 mm
03:39 11.8 °C 10 °C 1018.8 hPa South 18.5 km/h 11.3 km/h 89 % 0 mm
03:44 11.8 °C 10 °C 1018.8 hPa SSW 22.2 km/h 11.6 km/h 89 % 0 mm
03:49 11.7 °C 9.9 °C 1018.8 hPa South 16.7 km/h 9.2 km/h 89 % 0 mm
03:54 11.7 °C 9.9 °C 1018.8 hPa SSW 18.5 km/h 11.9 km/h 89 % 0 mm
03:59 11.7 °C 9.9 °C 1018.8 hPa North 18.5 km/h 11.6 km/h 89 % 0 mm
04:04 11.7 °C 9.9 °C 1018.8 hPa SSW 18.5 km/h 12.9 km/h 89 % 0 mm
04:09 11.6 °C 9.8 °C 1018.8 hPa SSW 20.4 km/h 10.3 km/h 89 % 0 mm
04:14 11.6 °C 9.8 °C 1018.8 hPa SSW 19.3 km/h 12.6 km/h 89 % 0 mm
04:19 11.6 °C 9.9 °C 1018.5 hPa SSW 18.5 km/h 15.8 km/h 90 % 0 mm
04:24 11.6 °C 9.9 °C 1018.5 hPa SSW 20.4 km/h 14 km/h 90 % 0 mm
04:29 11.5 °C 9.9 °C 1018.5 hPa SSW 18.5 km/h 15.6 km/h 90 % 0 mm
04:34 11.5 °C 9.9 °C 1018.5 hPa SSW 22.2 km/h 18.3 km/h 90 % 0 mm
04:39 11.5 °C 9.9 °C 1018.5 hPa North 18.5 km/h 14 km/h 90 % 0 mm
04:44 11.4 °C 9.9 °C 1018.5 hPa SSW 14.8 km/h 10.3 km/h 90 % 0 mm
04:49 11.4 °C 9.8 °C 1018.5 hPa SSW 16.7 km/h 14.5 km/h 90 % 0 mm
04:54 11.4 °C 9.8 °C 1018.5 hPa SSW 20.9 km/h 11.7 km/h 90 % 0 mm
04:59 11.3 °C 9.8 °C 1018.5 hPa North 16.7 km/h 7.9 km/h 90 % 0 mm
05:04 11.3 °C 9.8 °C 1018.5 hPa SSW 13 km/h 8.4 km/h 90 % 0 mm
05:09 11.3 °C 9.7 °C 1018.5 hPa SSW 18.5 km/h 9 km/h 90 % 0 mm
05:14 11.3 °C 9.7 °C 1018.5 hPa SSW 13 km/h 12.2 km/h 90 % 0 mm
05:19 11.2 °C 9.7 °C 1018.2 hPa SSW 18.5 km/h 12.4 km/h 90 % 0 mm
05:24 11.2 °C 9.6 °C 1018.2 hPa North 16.1 km/h 10.6 km/h 90 % 0 mm
05:29 11.2 °C 9.6 °C 1018.2 hPa SSW 20.9 km/h 14.3 km/h 90 % 0 mm
05:34 11.2 °C 9.6 °C 1018.2 hPa SSW 14.8 km/h 10.6 km/h 90 % 0 mm
05:39 11.2 °C 9.6 °C 1018.5 hPa SSW 13 km/h 8.7 km/h 90 % 0 mm
05:44 11.2 °C 9.6 °C 1018.5 hPa North 11.3 km/h 9 km/h 90 % 0 mm
05:49 11.2 °C 9.6 °C 1018.5 hPa SSW 18.5 km/h 6.9 km/h 90 % 0 mm
05:54 11.2 °C 9.6 °C 1018.5 hPa SSW 18.5 km/h 9.8 km/h 90 % 0 mm
05:59 11.2 °C 9.6 °C 1018.5 hPa SSW 13 km/h 7.6 km/h 90 % 0 mm
06:04 11.2 °C 9.6 °C 1018.5 hPa SSW 18.5 km/h 11.7 km/h 90 % 0 mm
06:09 11.1 °C 9.6 °C 1018.5 hPa SSW 14.8 km/h 9.8 km/h 90 % 0 mm
06:14 11.1 °C 9.6 °C 1018.5 hPa North 13 km/h 10.1 km/h 90 % 0 mm
06:19 11.1 °C 9.5 °C 1018.5 hPa SSW 7.4 km/h 6.3 km/h 90 % 0 mm
06:24 11 °C 9.4 °C 1018.5 hPa SSW 9.3 km/h 9 km/h 90 % 0 mm
06:29 10.9 °C 9.4 °C 1018.8 hPa SSW 5.6 km/h 4.7 km/h 90 % 0 mm
06:34 10.9 °C 9.3 °C 1018.8 hPa North 7.4 km/h 4.8 km/h 90 % 0 mm
06:39 10.8 °C 9.2 °C 1018.8 hPa SSW 7.4 km/h 4.3 km/h 90 % 0 mm
06:44 10.7 °C 9.2 °C 1018.8 hPa SSW 8 km/h 5.3 km/h 90 % 0 mm
06:49 10.7 °C 9.2 °C 1018.8 hPa SSW 11.1 km/h 7.4 km/h 90 % 0 mm
06:54 10.7 °C 9.3 °C 1018.8 hPa SSW 11.1 km/h 6 km/h 91 % 0 mm
06:59 10.7 °C 9.3 °C 1018.8 hPa SSW 7.4 km/h 7.2 km/h 91 % 0 mm
07:04 10.6 °C 9.2 °C 1018.8 hPa SSW 11.1 km/h 6.9 km/h 91 % 0 mm
07:09 10.6 °C 9.2 °C 1018.8 hPa SSW 9.3 km/h 5 km/h 91 % 0 mm
07:14 10.6 °C 9.2 °C 1018.8 hPa SSW 9.7 km/h 8.5 km/h 91 % 0 mm
07:19 10.5 °C 9.1 °C 1018.8 hPa North 9.3 km/h 5.8 km/h 91 % 0 mm
07:24 10.5 °C 9.1 °C 1018.8 hPa SSW 7.4 km/h 5 km/h 91 % 0 mm
07:29 10.6 °C 9.2 °C 1018.8 hPa SSW 5.6 km/h 2.6 km/h 91 % 0 mm
07:34 10.6 °C 9.2 °C 1018.8 hPa North 5.6 km/h 4.2 km/h 91 % 0 mm
07:39 10.6 °C 9.2 °C 1019.2 hPa SSW 5.6 km/h 4.3 km/h 91 % 0 mm
07:44 10.7 °C 9.3 °C 1019.2 hPa SSW 5.6 km/h 4.5 km/h 91 % 0 mm
07:49 10.8 °C 9.4 °C 1019.2 hPa SSW 5.6 km/h 2.6 km/h 91 % 0 mm
07:54 10.9 °C 9.6 °C 1019.2 hPa SSW 4.8 km/h 2.4 km/h 91 % 0 mm
07:59 11.1 °C 9.7 °C 1019.2 hPa SSW 5.6 km/h 3.7 km/h 91 % 0 mm
08:04 11.2 °C 9.8 °C 1019.2 hPa SSW 5.6 km/h 2.7 km/h 91 % 0 mm
08:09 11.4 °C 9.9 °C 1019.2 hPa SSW 8 km/h 6 km/h 91 % 0 mm
08:14 11.5 °C 9.9 °C 1019.2 hPa SSW 9.7 km/h 4.7 km/h 90 % 0 mm
08:19 11.7 °C 10.1 °C 1019.2 hPa SSW 7.4 km/h 5.5 km/h 90 % 0 mm
08:24 11.8 °C 10.1 °C 1019.2 hPa SSW 5.6 km/h 3.1 km/h 89 % 0 mm
08:29 12.1 °C 10.3 °C 1019.2 hPa SSW 5.6 km/h 3.4 km/h 89 % 0 mm
08:34 12.3 °C 10.3 °C 1019.5 hPa SSW 7.4 km/h 4.3 km/h 88 % 0 mm
08:39 12.6 °C 10.4 °C 1019.5 hPa SSW 6.4 km/h 3.7 km/h 87 % 0 mm
08:44 12.7 °C 10.4 °C 1019.2 hPa SSW 6.4 km/h 5.6 km/h 86 % 0 mm
08:49 12.8 °C 10.6 °C 1019.5 hPa SSW 7.4 km/h 4.7 km/h 86 % 0 mm
08:54 13.2 °C 10.9 °C 1019.5 hPa SSW 5.6 km/h 3.7 km/h 86 % 0 mm
08:59 13.5 °C 11 °C 1019.5 hPa SSW 5.6 km/h 2.9 km/h 85 % 0 mm
09:04 14 °C 11.5 °C 1019.5 hPa SSW 6.4 km/h 4.5 km/h 85 % 0 mm
09:09 14.7 °C 11.4 °C 1019.5 hPa SSW 5.6 km/h 4 km/h 81 % 0 mm
09:14 15.1 °C 11.5 °C 1019.2 hPa SSW 6.4 km/h 5.3 km/h 79 % 0 mm
09:19 15.3 °C 11.3 °C 1019.5 hPa SSW 5.6 km/h 4 km/h 77 % 0 mm
09:24 15.4 °C 11.4 °C 1019.5 hPa SSW 5.6 km/h 3.7 km/h 77 % 0 mm
09:29 15.8 °C 11.6 °C 1019.5 hPa SSW 5.6 km/h 3.5 km/h 76 % 0 mm
09:34 16.1 °C 11.6 °C 1019.5 hPa SSW 5.6 km/h 0.5 km/h 75 % 0 mm
09:39 16.5 °C 11.7 °C 1019.2 hPa SSW 5.6 km/h 1.8 km/h 73 % 0 mm
09:44 16.8 °C 11.8 °C 1019.5 hPa SSW 3.7 km/h 0.5 km/h 72 % 0 mm
09:49 17.2 °C 11.7 °C 1019.5 hPa SSW 3.7 km/h 1.4 km/h 70 % 0 mm
09:54 17.7 °C 12.2 °C 1019.5 hPa SSW 3.7 km/h 0.8 km/h 70 % 0 mm
09:59 18.2 °C 12 °C 1019.5 hPa SSW 1.9 km/h 0.2 km/h 67 % 0 mm
10:04 18.4 °C 11.7 °C 1019.5 hPa Calm     65 % 0 mm
10:09 18.9 °C 12.2 °C 1019.5 hPa SSW 3.2 km/h 2.1 km/h 65 % 0 mm
10:14 19.3 °C 12.3 °C 1019.5 hPa Calm     64 % 0 mm
10:19 19.6 °C 11.9 °C 1019.5 hPa Calm     61 % 0 mm
10:24 20.1 °C 11.8 °C 1019.5 hPa Calm   0.2 km/h 59 % 0 mm
10:29 20.6 °C 11.7 °C 1019.5 hPa Calm     57 % 0 mm
10:34 21 °C 11.9 °C 1019.5 hPa SSW 1.6 km/h 0.6 km/h 56 % 0 mm
10:39 21.2 °C 11.3 °C 1019.5 hPa SSW 3.7 km/h 0.5 km/h 53 % 0 mm
10:44 21.6 °C 11.3 °C 1019.2 hPa Calm     52 % 0 mm
10:49 22 °C 11.4 °C 1019.2 hPa SSW 3.7 km/h 1.1 km/h 51 % 0 mm
10:54 22.6 °C 11.3 °C 1019.2 hPa SSW 3.7 km/h 0.8 km/h 49 % 0 mm
10:59 23.3 °C 11.1 °C 1019.2 hPa SSW 3.7 km/h 1.9 km/h 46 % 0 mm
11:04 23.8 °C 10.8 °C 1019.2 hPa SSW 5.6 km/h 2.4 km/h 44 % 0 mm
11:09 24.3 °C 10.9 °C 1019.2 hPa SSW 1.9 km/h 1.6 km/h 43 % 0 mm
11:14 25 °C 11.2 °C 1019.2 hPa SSW 4.8 km/h 2.6 km/h 42 % 0 mm
11:19 25.2 °C 11.1 °C 1018.8 hPa SSW 3.7 km/h 2.4 km/h 41 % 0 mm
11:24 25.7 °C 11.1 °C 1018.8 hPa SSW 5.6 km/h 4.5 km/h 40 % 0 mm
11:29 26.1 °C 11 °C 1018.8 hPa SSW 5.6 km/h 5 km/h 39 % 0 mm
11:34 26.4 °C 11 °C 1018.8 hPa SSW 7.4 km/h 5 km/h 38 % 0 mm
11:39 27 °C 11.1 °C 1018.8 hPa SSW 3.7 km/h 1.3 km/h 37 % 0 mm
11:44 27.6 °C 10.8 °C 1018.8 hPa SSW 8 km/h 5.3 km/h 35 % 0 mm
11:49 28 °C 11.6 °C 1018.8 hPa Calm   0.6 km/h 36 % 0 mm
11:54 28.8 °C 11.4 °C 1018.8 hPa SSW 5.6 km/h 4.5 km/h 34 % 0 mm
11:59 29.1 °C 8.2 °C 1018.5 hPa NW 18.5 km/h 13.5 km/h 27 % 0 mm
12:04 29.1 °C 8.2 °C 1018.5 hPa NW 11.1 km/h 8.5 km/h 27 % 0 mm
12:09 29.4 °C 7.9 °C 1018.5 hPa NW 13 km/h 9.7 km/h 26 % 0 mm
12:14 29.7 °C 7.6 °C 1018.5 hPa NW 7.4 km/h 5.5 km/h 25 % 0 mm
12:19 29.9 °C 8.3 °C 1018.5 hPa NW 9.3 km/h 2.1 km/h 26 % 0 mm
12:24 30.1 °C 8.5 °C 1018.2 hPa NW 14.8 km/h 8.7 km/h 26 % 0 mm
12:29 30.4 °C 8.7 °C 1018.2 hPa NNW 16.7 km/h 9.8 km/h 26 % 0 mm
12:34 30.8 °C 9.1 °C 1018.2 hPa NW 7.4 km/h 8.5 km/h 26 % 0 mm
12:39 30.9 °C 8.6 °C 1018.2 hPa NNW 14.8 km/h 10.6 km/h 25 % 0 mm
12:44 30.8 °C 8.5 °C 1018.2 hPa NNE 18.5 km/h 14.5 km/h 25 % 0 mm
12:49 31.1 °C 8.7 °C 1017.8 hPa NNW 14.5 km/h 12.4 km/h 25 % 0 mm
12:54 31 °C 8.7 °C 1017.8 hPa NNW 18.5 km/h 8.5 km/h 25 % 0 mm
12:59 31.2 °C 8.2 °C 1017.8 hPa NNW 22.2 km/h 12.9 km/h 24 % 0 mm
13:04 31.3 °C 8.3 °C 1017.8 hPa NNW 18.5 km/h 10.9 km/h 24 % 0 mm
13:09 31.4 °C 9 °C 1017.8 hPa North 22.2 km/h 10.8 km/h 25 % 0 mm
13:14 31.6 °C 7.9 °C 1017.8 hPa NW 20.9 km/h 12.9 km/h 23 % 0 mm
13:19 31.4 °C 8.4 °C 1017.8 hPa NW 22.2 km/h 16.1 km/h 24 % 0 mm
13:24 31.6 °C 8.6 °C 1017.5 hPa North 14.8 km/h 8.7 km/h 24 % 0 mm
13:29 32.1 °C 8.3 °C 1017.5 hPa North 18.5 km/h 12.1 km/h 23 % 0 mm
13:34 32.2 °C 8.4 °C 1017.5 hPa NNE 27.8 km/h 9.5 km/h 23 % 0 mm
13:39 32.1 °C 7.7 °C 1017.5 hPa NW 17.7 km/h 10.8 km/h 22 % 0 mm
13:44 32.1 °C 8.4 °C 1017.5 hPa North 20.4 km/h 13.5 km/h 23 % 0 mm
13:49 32.1 °C 8.4 °C 1017.5 hPa NNW 14.8 km/h 8.4 km/h 23 % 0 mm
13:54 32.3 °C 7.8 °C 1017.2 hPa NNW 25.9 km/h 11.1 km/h 22 % 0 mm
13:59 32.6 °C 8.1 °C 1017.2 hPa NW 18.5 km/h 9.2 km/h 22 % 0 mm
14:04 32.7 °C 8.2 °C 1017.2 hPa NNW 16.7 km/h 11.6 km/h 22 % 0 mm
14:09 32.7 °C 8.2 °C 1017.2 hPa North 13 km/h 11.6 km/h 22 % 0 mm
14:14 33.2 °C 7.9 °C 1016.8 hPa NNE 13 km/h 9.2 km/h 21 % 0 mm
14:19 33 °C 8.4 °C 1016.8 hPa NNW 18.5 km/h 8 km/h 22 % 0 mm
14:24 33.2 °C 7.9 °C 1016.8 hPa NW 16.7 km/h 13 km/h 21 % 0 mm
14:29 33.1 °C 7.8 °C 1016.8 hPa NW 18.5 km/h 12.6 km/h 21 % 0 mm
14:34 33 °C 7.8 °C 1016.8 hPa NNW 13 km/h 8.4 km/h 21 % 0 mm
14:39 33.3 °C 7.3 °C 1016.5 hPa NNW 22.2 km/h 13.4 km/h 20 % 0 mm
14:44 33.4 °C 8.1 °C 1016.5 hPa WNW 20.9 km/h 15 km/h 21 % 0 mm
14:49 33.4 °C 8.1 °C 1016.5 hPa WNW 13 km/h 10.9 km/h 21 % 0 mm
14:54 33.6 °C 8.3 °C 1016.5 hPa NW 7.4 km/h 7.9 km/h 21 % 0 mm
14:59 33.8 °C 7.7 °C 1016.1 hPa NW 18.5 km/h 14.3 km/h 20 % 0 mm
15:04 33.7 °C 7.7 °C 1016.1 hPa NW 16.7 km/h 13.4 km/h 20 % 0 mm
15:09 33.7 °C 7.6 °C 1016.1 hPa NW 11.1 km/h 7.4 km/h 20 % 0 mm
15:14 33.9 °C 7.8 °C 1016.1 hPa NNW 9.3 km/h 3.9 km/h 20 % 0 mm
15:19 34.2 °C 7.3 °C 1016.1 hPa WNW 18.5 km/h 11.7 km/h 19 % 0 mm
15:24 34.2 °C 7.3 °C 1015.8 hPa NNW 14.8 km/h 9.7 km/h 19 % 0 mm
15:29 34.3 °C 7.3 °C 1015.8 hPa North 14.8 km/h 7.9 km/h 19 % 0 mm
15:34 33.8 °C 7 °C 1015.8 hPa NW 14.8 km/h 7.2 km/h 19 % 0 mm
15:39 33.9 °C 7 °C 1015.8 hPa West 20.4 km/h 11.3 km/h 19 % 0 mm
15:44 33.8 °C 7 °C 1015.8 hPa WNW 14.8 km/h 9.3 km/h 19 % 0 mm
15:49 33.9 °C 7.1 °C 1015.5 hPa West 3.7 km/h 1.1 km/h 19 % 0 mm
15:54 33.9 °C 7.8 °C 1015.5 hPa West 11.3 km/h 6.9 km/h 20 % 0 mm
15:59 34.4 °C 6.7 °C 1015.5 hPa NW 14.5 km/h 11.4 km/h 18 % 0 mm
16:04 34.4 °C 6.7 °C 1015.5 hPa WNW 14.8 km/h 10.8 km/h 18 % 0 mm
16:09 34.2 °C 7.3 °C 1015.1 hPa NW 18.5 km/h 11.6 km/h 19 % 0 mm
16:14 34.3 °C 7.3 °C 1015.1 hPa WNW 14.8 km/h 14.2 km/h 19 % 0 mm
16:19 34.2 °C 7.3 °C 1015.1 hPa SW 18.5 km/h 15.9 km/h 19 % 0 mm
16:24 34.1 °C 7.2 °C 1015.1 hPa SW 9.3 km/h 5.6 km/h 19 % 0 mm
16:29 34.3 °C 6.6 °C 1015.1 hPa NW 18.5 km/h 8.2 km/h 18 % 0 mm
16:34 34.3 °C 7.3 °C 1015.1 hPa NW 14.8 km/h 9.5 km/h 19 % 0 mm
16:39 34.6 °C 6.8 °C 1015.1 hPa NW 13 km/h 6.1 km/h 18 % 0 mm
16:44 34.7 °C 6.9 °C 1014.8 hPa WNW 18.5 km/h 11.3 km/h 18 % 0 mm
16:49 34.4 °C 6.7 °C 1014.8 hPa WNW 16.7 km/h 7.2 km/h 18 % 0 mm
16:54 34.3 °C 7.4 °C 1014.8 hPa WNW 14.5 km/h 13 km/h 19 % 0 mm
16:59 34.4 °C 7.5 °C 1014.8 hPa WNW 11.1 km/h 6.6 km/h 19 % 0 mm
17:04 34.5 °C 6.7 °C 1014.8 hPa WNW 9.3 km/h 3.9 km/h 18 % 0 mm
17:09 34.4 °C 7.5 °C 1014.8 hPa West 7.4 km/h 5.3 km/h 19 % 0 mm
17:14 34.6 °C 7.6 °C 1014.8 hPa WNW 13 km/h 8.2 km/h 19 % 0 mm
17:19 34.4 °C 7.5 °C 1014.8 hPa NW 13 km/h 5.1 km/h 19 % 0 mm
17:24 34.3 °C 6.6 °C 1014.4 hPa NW 13 km/h 4.8 km/h 18 % 0 mm
17:29 34.6 °C 7.6 °C 1014.4 hPa WNW 18.5 km/h 15.6 km/h 19 % 0 mm
17:34 34.6 °C 6.8 °C 1014.4 hPa WNW 16.7 km/h 15.3 km/h 18 % 0 mm
17:39 34.6 °C 7.6 °C 1014.4 hPa West 18.5 km/h 12.9 km/h 19 % 0 mm
17:44 34.4 °C 6.7 °C 1014.4 hPa West 13 km/h 4.3 km/h 18 % 0 mm
17:49 34.6 °C 6.8 °C 1014.4 hPa West 7.4 km/h 5.1 km/h 18 % 0 mm
17:54 34.7 °C 6.9 °C 1014.4 hPa WNW 6.4 km/h 1.9 km/h 18 % 0 mm
17:59 34.6 °C 7.6 °C 1014.4 hPa WNW 18.5 km/h 15.3 km/h 19 % 0 mm
18:04 34.6 °C 6.8 °C 1014.1 hPa WNW 11.1 km/h 6.1 km/h 18 % 0 mm
18:09 34.4 °C 6.7 °C 1014.1 hPa NW 16.7 km/h 10.8 km/h 18 % 0 mm
18:14 34.2 °C 7.3 °C 1014.1 hPa NW 16.7 km/h 10 km/h 19 % 0 mm
18:19 34.3 °C 7.3 °C 1014.4 hPa WNW 13 km/h 12.1 km/h 19 % 0 mm
18:24 34.2 °C 6.5 °C 1014.1 hPa WNW 7.4 km/h 6.8 km/h 18 % 0 mm
18:29 34.3 °C 7.3 °C 1014.1 hPa WNW 11.1 km/h 4.5 km/h 19 % 0 mm
18:34 34.3 °C 6.6 °C 1014.1 hPa WNW 9.3 km/h 6.1 km/h 18 % 0 mm
18:39 34.2 °C 6.5 °C 1014.1 hPa North 9.7 km/h 7.6 km/h 18 % 0 mm
18:44 34.2 °C 6.4 °C 1014.1 hPa WNW 8 km/h 7.9 km/h 18 % 0 mm
18:49 34.1 °C 7.2 °C 1014.1 hPa North 11.1 km/h 10 km/h 19 % 0 mm
18:54 33.9 °C 7 °C 1014.1 hPa NW 9.3 km/h 4.5 km/h 19 % 0 mm
18:59 34 °C 7.1 °C 1014.1 hPa North 11.1 km/h 6.8 km/h 19 % 0 mm
19:04 33.9 °C 7 °C 1014.1 hPa NW 13 km/h 6.8 km/h 19 % 0 mm
19:09 33.7 °C 6.9 °C 1014.1 hPa NW 7.4 km/h 7.6 km/h 19 % 0 mm
19:14 33.6 °C 6.8 °C 1014.1 hPa NW 7.4 km/h 5.5 km/h 19 % 0 mm
19:19 33.4 °C 6.7 °C 1014.1 hPa NW 9.3 km/h 8.5 km/h 19 % 0 mm
19:24 33.3 °C 7.3 °C 1014.1 hPa NW 5.6 km/h 2.6 km/h 20 % 0 mm
19:29 33.2 °C 7.2 °C 1014.1 hPa NW 11.1 km/h 8 km/h 20 % 0 mm
19:34 33.1 °C 7.2 °C 1014.1 hPa North 9.3 km/h 6 km/h 20 % 0 mm
19:39 33 °C 7.1 °C 1014.1 hPa North 7.4 km/h 4.7 km/h 20 % 0 mm
19:44 32.8 °C 6.9 °C 1014.1 hPa NW 8 km/h 4.2 km/h 20 % 0 mm
19:49 32.6 °C 7.4 °C 1014.1 hPa NW 5.6 km/h 4.3 km/h 21 % 0 mm
19:54 32.3 °C 7.2 °C 1014.1 hPa NW 5.6 km/h 3.1 km/h 21 % 0 mm
19:59 32.1 °C 7.7 °C 1014.4 hPa NW 3.7 km/h 2.4 km/h 22 % 0 mm
20:04 31.8 °C 8.1 °C 1014.4 hPa NW 3.7 km/h 0.6 km/h 23 % 0 mm
20:09 31.4 °C 7.8 °C 1014.4 hPa Calm     23 % 0 mm
20:14 30.8 °C 7.9 °C 1014.4 hPa NW 3.7 km/h 1 km/h 24 % 0 mm
20:19 30.3 °C 8.6 °C 1014.4 hPa NW 3.7 km/h 2.7 km/h 26 % 0 mm
20:24 29.7 °C 8.7 °C 1014.4 hPa North 3.7 km/h 1.9 km/h 27 % 0 mm
20:29 29.2 °C 8.2 °C 1014.4 hPa NW 3.7 km/h 2.7 km/h 27 % 0 mm
20:34 28.8 °C 7.9 °C 1014.4 hPa NW 1.9 km/h 1.1 km/h 27 % 0 mm
20:39 28.5 °C 8.7 °C 1014.8 hPa NW 1.9 km/h   29 % 0 mm
20:44 28.2 °C 9 °C 1014.8 hPa Calm     30 % 0 mm
20:49 27.8 °C 8.6 °C 1014.8 hPa Calm     30 % 0 mm
20:54 27.2 °C 9.1 °C 1014.8 hPa NW 3.7 km/h 2.4 km/h 32 % 0 mm
20:59 26.7 °C 8.6 °C 1014.8 hPa Calm     32 % 0 mm
21:04 26.4 °C 9.3 °C 1014.8 hPa Calm     34 % 0 mm
21:09 25.9 °C 8.8 °C 1015.1 hPa NW 3.7 km/h 2.4 km/h 34 % 0 mm
21:14 25.5 °C 8.9 °C 1015.1 hPa NW 3.7 km/h 0.2 km/h 35 % 0 mm
21:19 25.3 °C 9.1 °C 1015.1 hPa Calm     36 % 0 mm
21:24 25.1 °C 9.3 °C 1015.1 hPa Calm     37 % 0 mm
21:29 24.9 °C 9.2 °C 1015.1 hPa NW 1.9 km/h   37 % 0 mm
21:34 24.7 °C 9.4 °C 1015.1 hPa Calm     38 % 0 mm
21:39 24.4 °C 9.9 °C 1015.5 hPa NW 5.6 km/h 3.5 km/h 40 % 0 mm
21:44 24.1 °C 9.6 °C 1015.5 hPa NW 3.7 km/h 0.6 km/h 40 % 0 mm
21:49 23.7 °C 9.3 °C 1015.5 hPa Calm     40 % 0 mm
21:54 23.6 °C 9.6 °C 1015.5 hPa NW 5.6 km/h 2.1 km/h 41 % 0 mm
21:59 23.4 °C 8.7 °C 1015.5 hPa NW 1.9 km/h 0.6 km/h 39 % 0 mm
22:04 23.4 °C 9.1 °C 1015.8 hPa NW 3.2 km/h 1 km/h 40 % 0 mm
22:09 23.3 °C 9.3 °C 1015.8 hPa North 4.8 km/h 2.9 km/h 41 % 0 mm
22:14 22.8 °C 9.2 °C 1015.8 hPa NW 1.9 km/h 0.6 km/h 42 % 0 mm
22:19 22.7 °C 9.5 °C 1015.8 hPa NW 1.9 km/h   43 % 0 mm
22:24 22.8 °C 9.2 °C 1015.5 hPa NW 3.2 km/h 1.3 km/h 42 % 0 mm
22:29 22.7 °C 9.1 °C 1015.8 hPa North 3.7 km/h 1.6 km/h 42 % 0 mm
22:34 22.6 °C 9.1 °C 1015.8 hPa NW 1.9 km/h 0.2 km/h 42 % 0 mm
22:39 22.6 °C 9.3 °C 1015.8 hPa Calm     43 % 0 mm
22:44 22.4 °C 9.2 °C 1015.8 hPa Calm     43 % 0 mm
22:49 22.4 °C 9.2 °C 1015.8 hPa Calm     43 % 0 mm
22:54 22.2 °C 9.3 °C 1015.8 hPa Calm     44 % 0 mm
22:59 22 °C 9.2 °C 1015.5 hPa Calm     44 % 0 mm
23:04 21.7 °C 9.6 °C 1015.8 hPa Calm     46 % 0 mm
23:09 21.7 °C 9.6 °C 1015.8 hPa Calm     46 % 0 mm
23:14 21.7 °C 9.6 °C 1015.8 hPa Calm     46 % 0 mm
23:19 21.6 °C 9.5 °C 1015.8 hPa Calm     46 % 0 mm
23:24 21.3 °C 9.6 °C 1015.5 hPa Calm     47 % 0 mm
23:29 21.1 °C 9.7 °C 1015.5 hPa Calm     48 % 0 mm
23:34 20.9 °C 9.5 °C 1015.5 hPa Calm     48 % 0 mm
23:39 20.9 °C 9.4 °C 1015.5 hPa Calm     48 % 0 mm
23:44 20.8 °C 9.4 °C 1015.5 hPa Calm     48 % 0 mm
23:46 20.8 °C 9.4 °C 1015.5 hPa Calm     48 % 0 mm
Ararat Weather
Compliments of Weather Underground - 2.5 mb
Click here to send mail.


ABOUT

Live weather data from Ararat, Victoria, Australia, 3377
Data uploaded from Cumulus every 5 minutes to Weather Underground.
This site then downloads the raw data for formatting and display.
Metric and imperial data can be displayed. Graphs and historical data available.
Includes Sun and Moon times and rain image live from BOM.

Check out Ararat Weather on Facebook, Twitter and Google +

Help support ongoing costs by checking out the ads





Follow @AraratWeather